アトラス彗星

P/2019 T5 ( ATLAS )

English version
Home page
Updated on January 20, 2020

---------------------------------------------------------------------

・ プロフィール

発見日 2019年10月8日
発見光度 18.9等
発見者 Asteroid Terrestrial-Impact Last Alert System (ATLAS) search program

・ 写真集

・ 軌道要素

Epoch 2019 July 16.0 TT = JDT 2458680.5
T 2019 Aug. 1.15550 TT                                  Williams
q   1.5289786            (2000.0)            P               Q
n   0.04339383     Peri.  189.62507     +0.24502719     -0.82477611
a   8.0201796      Node   247.69849     +0.92212518     +0.36058755
e   0.8093586      Incl.   33.42292     +0.29941082     -0.43556972
P  22.7
From 68 observations 2019 Oct. 8-Dec. 30, mean residual 0".5.

・ 光度変化

        m1 = 14.0 + 5 logΔ + 10.0 log r

---------------------------------------------------------------------

軌道要素はM.P.E.C. 2020-A105に掲載されたものです。
光度グラフはComet for Windowsで作成したものです。

---------------------------------------------------------------------

Copyright(C) Seiichi Yoshida (comet@aerith.net). All rights reserved.